Weather Roundup
Issued by NWS Chicago, IL

Home | Current Version | Previous Version | Graphics & Text | Print | Product List | Glossary On
Versions: 1 2 3 4 5 6 7 8 9 10 11 12 13 14 15 16 17 18 19 20 21 22 23 24 25 26 27 28 29 30 31 32 33 34 35 36 37 38 39 40 41 42 43 44 45 46 47 48 49 50
000
NZUS59 KLOT 102158
HRRLOT

CHICAGO AREA WEATHER ROUNDUP
NATIONAL WEATHER SERVICE CHICAGO/ROMEOVILLE IL
500 PM CDT THU JUL 10 2014

NOTE: "FAIR" INDICATES FEW OR NO CLOUDS BELOW 12,000 FEET WITH NO
SIGNIFICANT WEATHER AND/OR OBSTRUCTIONS TO VISIBILITY.

* THESE STATIONS ARE NOT UNDER NWS QUALITY CONTROL. THEY ALSO MAY NOT
  REPORT WEATHER SUCH AS PRECIPITATION OR FOG.

ILZ005-006-012>014-019>023-102300-
NORTHEAST ILLINOIS

CITY           SKY/WX    TMP DP  RH WIND       PRES   REMARKS
OHARE          MOSUNNY   76  52  43 E12       30.14F
MIDWAY         MOSUNNY   76  53  44 E14       30.14F
AURORA         SUNNY     79  53  40 VRB6      30.14S
WAUKEGAN       SUNNY     70  55  59 E8        30.15F
DUPAGE AIRPORT MOSUNNY   78  55  44 CALM      30.13F
WHEELING       SUNNY     74  53  48 E8        30.16F
NORTHERLY IS     N/A     70  57  63 E10         N/A
$$

WIZ051-052-058>065-066-070>072-102300-
SOUTHEAST WISCONSIN

CITY           SKY/WX    TMP DP  RH WIND       PRES   REMARKS
MILWAUKEE      MOSUNNY   70  55  59 SE14      30.16F
KENOSHA*       SUNNY     71  56  58 E10       30.16F
RACINE*        SUNNY     70  56  61 SE10      30.17F
WAUKESHA       MOSUNNY   73  57  56 SE10      30.16S
$$

INZ001>003-010>013-019-020-102300-
NORTHWEST INDIANA

CITY           SKY/WX    TMP DP  RH WIND       PRES   REMARKS
GARY*          SUNNY     75  52  43 E9        30.15F
MICHIGAN CITY* NOT AVBL
RENSSELAER*    NOT AVBL
VALPARAISO     SUNNY     75  48  38 NE7       30.16F
$$

LMZ740>746-102300-
SOUTHERN LAKE MICHIGAN

STATION/POSITION TIME  SKY/WX   TEMP WIND        PRES    VSBY
                                AIR  DIR/SP/G
                 (UTC)          (F)  (DEG/KT/KT) (MB)    (MI)
HARRISON CRIB    2100            67   90/ 13/ 14   N/A
BURNHAM HARBOR   2100            70   90/  9/ 11   N/A
CALUMET HARBOR   2100            70   70/  9/ 11 1022.0F
BURNS HARBOR     NOT AVBL
MICHIGAN CITY    2100            68   10/ 10/ 11   N/A
$$

ABBREVIATIONS USED IN REMARKS
   TC - TEMPERATURE IN CELSIUS
  WCI - WIND CHILL INDEX
   HX - HEAT INDEX
  VSB - VISIBILITY
$$


USA.gov is the U.S. government's official web portal to all federal, state and local government web resources and services.